Simultaneous Nadir Overpasses (SNOs) Predictions

Prediction of SNOs between AQUA and NPP Satellite Orbit:

Table of predicted SNOs for the next 14.0 days since TLE Epoch: 6/5/2021
Index Date (AQUA) Time (AQUA) Lat,Lon (AQUA) SZA (AQUA ) Date (NPP) Time (NPP) Lat,Lon (NPP) SZA (NPP ) Distance(km) Time Diff (sec)
1 06/07/2021 06:21:34 -75.76, 142.89 104.84 06/07/2021 06:21:22 -75.76, 142.89 104.83 0.11 12
2 06/07/2021 07:10:37 76.83, -45.96 73.88 06/07/2021 07:11:42 76.84, -45.89 73.81 1.94 65
3 06/09/2021 21:48:56 74.72, 88.31 76.16 06/09/2021 21:47:55 74.71, 88.22 76.23 2.80 61
4 06/09/2021 22:37:53 -76.25, -99.70 105.62 06/09/2021 22:38:08 -76.26, -99.63 105.65 2.05 15
5 06/12/2021 14:05:12 75.38,-154.07 75.26 06/12/2021 14:04:38 75.38,-154.10 75.29 0.75 34
6 06/12/2021 14:54:19 -76.40, 16.66 105.95 06/12/2021 14:55:02 -76.39, 16.61 105.97 1.36 43
7 06/15/2021 06:21:28 75.97, -36.47 74.47 06/15/2021 06:21:21 75.98, -36.40 74.46 1.87 7
8 06/15/2021 07:10:37 -76.87, 134.17 106.62 06/15/2021 07:11:47 -76.88, 134.24 106.69 1.71 70
9 06/17/2021 21:48:53 -74.91, -91.22 104.36 06/17/2021 21:47:57 -74.90, -91.27 104.30 1.64 56



Historial Predications of SNOs between AQUA and NPP
